Location: Cuiry
(49.3858°N, 3.7708°E)
Time: 23:55:46
(UTC+00:00)

USA 238 DEB - Pass Details

Date: 12 January 2026
Orbit: 883 x 1328 km, 63.4° (Epoch: 10 January)

Event Time Altitude Azimuth Distance (km) Brightness Sun altitude
Rises 16:46:16 0° 314° (NW) 3,864 6.9 -6.0°
Reaches altitude 10° 16:48:58 10° 321° (NW) 2,972 6.2 -6.4°
Maximum altitude 16:55:49 46° 33° (NNE) 1,555 4.2 -7.4°
Drops below altitude 10° 17:03:20 10° 106° (ESE) 3,257 5.8 -8.5°
Sets 17:06:25 0° 112° (ESE) 4,266 6.4 -9.0°
